[[{"header":{"parameterUnit":"m.s-1","parameterCategory":1,"la1":30.2991,"la2":30.254,"lo1":-89.0895,"lo2":-89.0444,"dy":0.0017,"dx":0.0017,"nx":28,"ny":28,"refTime":"2025-07-13T03:00:00:Z","depth":0,"parameterNumber":2,"parameterNumberName":"U-component_of_WINDS"},"data":[0,0,0,0,0,0,0,0,0,0,0,0,0,0,0,0,0,0,0,0,0,0,0,0,0,0,0,0,0,0,0,0,0,0,0,0,0,0,0,0,0,0,0,0,0,0,0,0,0,0,0,0,0,0,0,0,0,0,2.3295,2.3294,0,2.3274,2.3273,2.3273,2.3179,2.3177,2.3175,2.3172,2.3154,2.3156,2.3157,0,0,0,0,0,0,0,0,0,0,0,0,0,2.3254,2.3255,2.3295,2.3294,2.3294,2.3274,2.3273,2.3273,2.3179,2.3177,2.3174,2.3171,2.3154,2.3156,2.3158,0,0,0,0,0,0,0,0,0,0,0,0,0,2.3256,2.3256,2.3295,2.3245,2.324,2.3274,2.3273,2.3273,2.318,2.3177,2.3173,2.317,2.3153,2.3155,2.3158,2.3239,0,0,2.3165,2.3166,0,0,0,0,0,0,0,0,2.3256,2.3258,2.3252,2.3248,2.3243,2.3225,2.3252,2.3262,2.3181,2.3203,2.3172,2.3169,2.3181,2.3181,2.3184,2.3238,2.3237,2.3165,2.3167,2.3168,2.3168,0,0,0,0,0,0,0,2.3256,2.3258,2.3286,2.3252,2.3247,2.3224,2.322,2.3254,2.3211,2.3201,2.3194,2.3192,2.3178,2.3182,2.3183,2.3237,2.3165,2.3167,2.3169,2.317,2.3351,2.3355,0,0,0,0,0,0,2.3263,2.3259,2.3287,2.3286,2.3242,2.3227,2.3223,2.3235,2.321,2.3203,2.3195,2.3188,2.318,2.318,2.3182,2.3272,2.3168,2.317,2.3171,2.3348,2.3352,2.3356,0,0,0,0,0,0,2.3263,2.3266,2.3288,2.327,2.3271,2.3231,2.3245,2.3236,2.324,2.3206,2.3198,2.3208,2.3177,2.3179,2.3224,2.327,2.3171,2.3173,2.3344,2.3349,2.3354,2.3454,0,0,0,0,0,0,2.3262,2.3267,2.3297,2.3272,2.3273,2.3331,2.3248,2.3238,2.3244,2.3234,2.3216,2.3209,2.3175,2.3221,2.3227,2.3271,2.3175,2.334,2.3346,2.3352,2.3447,2.3462,2.3475,0,0,0,0,0,2.3261,2.3328,2.3299,2.3303,2.331,2.3333,2.3334,2.3292,2.3248,2.3278,2.3255,2.321,2.3265,2.3227,2.3232,2.3278,2.3337,2.3345,2.3352,2.344,2.3459,2.3475,0,0,0,0,0,0,2.3363,2.3324,2.3292,2.3353,2.3347,2.3317,2.3354,2.3314,2.3321,2.3312,2.326,2.3257,2.3309,2.3299,2.3257,2.3353,2.3292,2.3302,2.3358,2.3375,2.339,2.339,2.3177,0,0,0,0,0,2.3392,2.3414,2.3379,2.3437,2.3435,2.3395,2.3404,2.3372,2.3364,2.3361,2.3342,2.3337,2.3352,2.3364,2.3376,2.3445,2.3438,2.3479,2.3494,2.3506,2.3514,2.3545,2.3562,2.3381,2.3381,2.3381,0,0,2.3453,2.3435,2.3452,2.3456,2.3448,2.3471,2.3394,2.3423,2.3439,2.3366,2.3406,2.3392,2.3382,2.3439,2.3463,2.3431,2.3562,2.3515,2.3525,2.3526,2.3555,2.3572,2.3587,2.3386,2.3385,2.3384,0,0,2.3576,2.3566,2.361,2.3602,2.3589,2.3561,2.3572,2.3548,2.3535,2.3574,2.3519,2.3538,2.3567,2.356,2.3561,2.3678,2.3635,2.3684,2.3758,2.379,2.3804,2.3816,2.3855,2.3869,2.3692,2.3693,2.3693,0,2.3654,2.3686,2.3638,2.3669,2.3671,2.3604,2.3647,2.3643,2.3636,2.3638,2.3604,2.3635,2.3624,2.3676,2.3704,2.3708,2.3717,2.3685,2.3806,2.3818,2.3828,2.3864,2.3879,2.3698,2.3698,2.3697,2.3697,0,2.3781,2.3803,2.3841,2.3832,2.3839,2.3877,2.3834,2.3847,2.3813,2.3789,2.3828,2.3813,2.3819,2.3829,2.3799,2.3876,2.3856,2.3815,2.3752,2.3852,2.3885,2.3898,2.3707,2.3704,2.3703,2.3701,0,0,2.3968,2.393,2.3944,2.3937,2.3917,2.3933,2.3967,2.3971,2.3981,2.3978,2.4003,2.4027,2.3987,2.3988,2.3956,2.3984,2.4072,2.3937,2.3936,2.396,2.4153,2.4182,2.4199,2.4044,2.4047,2.4049,2.4152,0,2.4082,2.4135,2.4092,2.4153,2.4171,2.4107,2.4135,2.4125,2.4104,2.4116,2.4092,2.4108,2.4056,2.4055,2.408,2.4056,2.411,2.4049,2.4066,2.4067,2.4067,2.4217,2.4249,2.4347,2.4165,2.4167,2.4169,0,2.4223,2.4222,2.4285,2.4255,2.4262,2.4288,2.4286,2.43,2.4286,2.4268,2.4268,2.4226,2.4256,2.4196,2.4235,2.4194,2.4199,2.4188,2.4191,2.4189,2.4122,2.4216,2.4378,2.4392,2.4189,2.4188,2.4186,0,2.4348,2.4364,2.4402,2.4399,2.4367,2.4386,2.4374,2.4358,2.4362,2.4361,2.4362,2.4366,2.4367,2.437,2.4331,2.4291,2.4374,2.4312,2.4358,2.4359,2.4377,2.4376,2.4539,2.4385,2.4385,2.4384,2.4384,0,2.4479,2.4519,2.4457,2.448,2.4522,2.4472,2.4515,2.4496,2.4481,2.4499,2.4445,2.4463,2.441,2.4423,2.4392,2.4427,2.4429,2.4414,2.4405,2.4418,2.4419,2.4418,2.4409,2.4388,2.4387,2.4386,2.4386,0,2.4626,2.4587,2.4623,2.4589,2.4581,2.4613,2.4584,2.4603,2.4577,2.46,2.4602,2.4561,2.4572,2.4533,2.454,2.4519,2.4569,2.455,2.4573,2.4566,2.4613,2.4608,2.478,2.4798,2.4635,2.4637,2.4638,0,2.4711,2.4739,2.4707,2.4713,2.4703,2.4716,2.4719,2.467,2.4675,2.4659,2.4681,2.4687,2.4689,2.471,2.4681,2.4684,2.4663,2.4723,2.4664,2.4674,2.466,2.4658,2.4659,2.4735,2.4737,2.4739,2.474,0,2.4864,2.4842,2.4847,2.4844,2.4848,2.4845,2.4837,2.4847,2.4794,2.4802,2.4811,2.4813,2.4817,2.4823,2.4819,2.4807,2.4764,2.4759,2.4769,2.4781,2.4791,2.4783,2.4603,2.4755,2.4753,2.4752,2.4752,2.4751,2.498,2.5,2.4979,2.4986,2.4974,2.4968,2.4983,2.4957,2.4964,2.4961,2.4933,2.4947,2.493,2.492,2.4912,2.4922,2.4894,2.491,2.4914,2.4918,2.4924,2.4792,2.4922,2.4921,2.4921,2.4921,2.492,0,2.5127,2.5109,2.5116,2.5105,2.511,2.5068,2.5057,2.5063,2.5076,2.5063,2.5065,2.5075,2.508,2.505,2.505,2.5064,2.5044,2.5066,2.5063,2.506,2.4951,2.494,2.5081,2.5081,2.5081,2.5081,2.5081,2.5081,2.5204,2.5235,2.521,2.5234,2.5216,2.5228,2.5225,2.5218,2.5207,2.5219,2.5222,2.5202,2.5181,2.5179,2.5181,2.5172,2.5174,2.5202,2.5186,2.5084,2.5068,2.5053,2.5043,2.5203,2.5203,2.5293,2.5294,2.5295]},{"header":{"parameterUnit":"m.s-1","parameterCategory":1,"la1":30.2991,"la2":30.254,"lo1":-89.0895,"lo2":-89.0444,"dy":0.0017,"dx":0.0017,"nx":28,"ny":28,"refTime":"2025-07-13T03:00:00:Z","depth":0,"parameterNumber":3,"parameterNumberName":"V-component_of_WINDS"},"data":[0,0,0,0,0,0,0,0,0,0,0,0,0,0,0,0,0,0,0,0,0,0,0,0,0,0,0,0,0,0,0,0,0,0,0,0,0,0,0,0,0,0,0,0,0,0,0,0,0,0,0,0,0,0,0,0,0,0,3.0001,3.0002,0,3.009,3.0091,3.0092,3.0082,3.008,3.0079,3.0077,3.0165,3.0168,3.0172,0,0,0,0,0,0,0,0,0,0,0,0,0,2.9815,2.9818,3.0001,3.0002,3.0003,3.009,3.0091,3.0093,3.0082,3.008,3.0078,3.0077,3.0164,3.0168,3.0172,0,0,0,0,0,0,0,0,0,0,0,0,0,2.9899,2.9819,3.0,3.0008,3.001,3.009,3.0091,3.0093,3.0082,3.008,3.0078,3.0076,3.0162,3.0167,3.0173,3.025,0,0,3.019,3.0192,0,0,0,0,0,0,0,0,2.9894,2.9906,3.0006,3.0008,3.001,3.0073,3.0058,3.0145,3.0083,3.0055,3.0077,3.0075,3.0136,3.0143,3.0165,3.0254,3.0258,3.019,3.0194,3.0196,3.0197,0,0,0,0,0,0,0,2.9888,2.9902,3.0036,3.0007,3.001,3.0005,3.0015,3.0074,3.0106,3.0057,3.0056,3.0067,3.0136,3.0159,3.0166,3.0259,3.019,3.0195,3.0198,3.02,3.0414,3.0416,0,0,0,0,0,0,2.9881,2.9897,3.0033,3.0039,2.9946,3.001,3.0021,3.0055,3.0105,3.0111,3.0069,3.0066,3.0151,3.016,3.0169,3.0261,3.0196,3.0201,3.0204,3.0411,3.0414,3.0417,0,0,0,0,0,0,2.9877,2.9894,3.003,2.9968,2.9985,3.0016,3.0053,3.0057,3.0081,3.0115,3.012,3.0087,3.015,3.0162,3.023,3.0264,3.0203,3.0208,3.0408,3.0412,3.0415,3.0446,0,0,0,0,0,0,2.9872,2.9892,2.9923,2.9969,2.9988,3.009,3.0056,3.0061,3.0091,3.0088,3.0133,3.0138,3.0149,3.0222,3.0235,3.0271,3.0213,3.0405,3.041,3.0414,3.0442,3.0451,3.0458,0,0,0,0,0,2.9866,2.9928,2.9925,2.9941,3.0028,3.0092,3.0103,3.0115,3.0094,3.0124,3.0145,3.0137,3.0259,3.0229,3.0244,3.0281,3.0403,3.0409,3.0414,3.0439,3.0449,3.0457,0,0,0,0,0,0,2.9884,2.9934,2.9931,3.0011,3.0047,3.009,3.0129,3.0126,3.0168,3.0164,3.0176,3.0186,3.0254,3.0275,3.0241,3.0357,3.0328,3.0336,3.0342,3.0351,3.0359,3.0352,3.0217,0,0,0,0,0,2.9898,2.9948,2.9988,3.0054,3.0073,3.0098,3.0126,3.0132,3.017,3.0185,3.0212,3.0248,3.0294,3.0324,3.0368,3.0446,3.0454,3.0479,3.0486,3.0492,3.0499,3.0539,3.055,3.0434,3.0434,3.0434,0,0,2.9926,2.996,2.999,3.0058,3.0088,3.0137,3.0111,3.0164,3.02,3.0193,3.0259,3.0279,3.032,3.0392,3.0426,3.0412,3.0533,3.0499,3.0504,3.0507,3.0546,3.0557,3.0566,3.0438,3.0437,3.0436,0,0,3.0003,3.0034,3.0091,3.0121,3.0166,3.0182,3.0196,3.0239,3.0253,3.0319,3.0314,3.0357,3.0437,3.0465,3.049,3.0576,3.0569,3.059,3.0629,3.0668,3.0677,3.0685,3.0713,3.0724,3.0597,3.0597,3.0597,0,3.0031,3.0107,3.0121,3.0175,3.0204,3.0201,3.0258,3.0286,3.0342,3.0362,3.0346,3.0445,3.0472,3.055,3.0571,3.0592,3.0606,3.0584,3.0675,3.0683,3.0691,3.0718,3.0729,3.0599,3.0599,3.0599,3.0598,0,3.0139,3.0192,3.0232,3.0288,3.0322,3.0377,3.0397,3.043,3.0433,3.045,3.0516,3.0549,3.0599,3.0618,3.0622,3.0696,3.0686,3.0672,3.0642,3.0704,3.0729,3.074,3.0602,3.0601,3.0601,3.06,0,0,3.023,3.0292,3.0306,3.0331,3.038,3.0419,3.0473,3.0524,3.055,3.0589,3.0633,3.07,3.0688,3.0716,3.0722,3.0757,3.082,3.0739,3.074,3.0751,3.0902,3.091,3.0922,3.0816,3.0818,3.082,3.0897,0,3.0309,3.0406,3.042,3.0505,3.0552,3.0549,3.0596,3.063,3.0647,3.0688,3.0706,3.0753,3.0734,3.0751,3.0785,3.0805,3.085,3.08,3.0855,3.0857,3.0843,3.0936,3.0946,3.1017,3.0908,3.091,3.0911,0,3.0415,3.0457,3.0547,3.0588,3.0608,3.0651,3.0697,3.0737,3.0774,3.0784,3.0816,3.0817,3.0871,3.084,3.0913,3.0878,3.0902,3.0915,3.0918,3.0922,3.0886,3.0941,3.1041,3.1051,3.0927,3.0926,3.0925,0,3.0469,3.0549,3.0612,3.0634,3.0684,3.0713,3.0735,3.077,3.0799,3.0839,3.0857,3.0902,3.0927,3.0961,3.0974,3.095,3.1045,3.1016,3.1053,3.1052,3.1072,3.107,3.1175,3.109,3.109,3.1089,3.1089,0,3.0555,3.061,3.0637,3.0676,3.0737,3.0751,3.081,3.083,3.0862,3.0903,3.0903,3.0942,3.0958,3.0998,3.1009,3.1066,3.1077,3.1085,3.1087,3.1084,3.1083,3.1098,3.1093,3.1092,3.1092,3.1091,3.1091,0,3.0625,3.0646,3.0715,3.0757,3.0769,3.0811,3.0846,3.0882,3.0899,3.0951,3.0964,3.099,3.1038,3.1055,3.1112,3.1119,3.1185,3.1183,3.1172,3.1172,3.1208,3.1203,3.1325,3.134,3.1247,3.1248,3.1249,0,3.0678,3.072,3.0766,3.0795,3.0818,3.0864,3.0893,3.0908,3.0938,3.0984,3.1014,3.1062,3.11,3.1176,3.1199,3.1242,3.124,3.128,3.1247,3.1242,3.1238,3.1235,3.1238,3.1285,3.1286,3.1287,3.1288,0,3.0769,3.0777,3.082,3.0867,3.0902,3.0939,3.0975,3.0998,3.1017,3.1051,3.11,3.113,3.1189,3.1235,3.128,3.13,3.1296,3.1298,3.1309,3.1305,3.1296,3.13,3.1187,3.1295,3.1294,3.1294,3.1293,3.1293,3.083,3.0867,3.0905,3.0952,3.0981,3.1014,3.105,3.1072,3.1114,3.1163,3.1169,3.1222,3.1256,3.1316,3.1338,3.1378,3.1367,3.1382,3.1386,3.1389,3.1391,3.1292,3.1386,3.1386,3.1386,3.1385,3.1385,0,3.0919,3.0944,3.0987,3.1038,3.1074,3.107,3.1109,3.1139,3.1186,3.1219,3.1257,3.1313,3.1357,3.1384,3.1428,3.1454,3.1454,3.1465,3.1462,3.1467,3.1399,3.1385,3.1465,3.1465,3.1465,3.1465,3.1465,3.1465,3.097,3.1031,3.1043,3.1117,3.1141,3.1193,3.1215,3.1245,3.1272,3.1334,3.1371,3.1389,3.1419,3.1465,3.1505,3.1511,3.1526,3.1539,3.1544,3.148,3.1472,3.1464,3.145,3.1543,3.1543,3.1608,3.1608,3.1609]}]]